Sunshine Coast Airport Observation History
Time Wind Speed Temp Pressure Rel. Hum Rain
21/09:00pm NW 16-22 kts 23.6°c 1008.7 hPa 87% 33.2mm
21/08:30pm NNW 12-17 kts 23.5°c 1008.6 hPa 87% 33.2mm
21/08:00pm NNE 11-14 kts 24.1°c 1009.1 hPa 89% 33.2mm
21/07:30pm N 9-12 kts 23.1°c 1009.1 hPa 88% 32.8mm
21/07:00pm WNW 11-15 kts 24.1°c 1009.8 hPa 88% 32.4mm
21/06:47pm NW 11-24 kts 24.5°c 1010.3 hPa 86% 32.2mm
21/06:44pm N 10-14 kts 24.7°c 1010.1 hPa 86% 32.2mm
21/06:30pm NNW 15-22 kts 24.7°c 1008.1 hPa 85% 31.8mm
21/06:22pm NW 21-28 kts 24.7°c 1008.2 hPa 84% 31.4mm
21/06:13pm NNW 19-27 kts 24.0°c 1007.8 hPa 88% 31.4mm
21/06:01pm N 13-21 kts 23.3°c 1007.8 hPa 83% 31.4mm
21/06:00pm N 13-18 kts 23.3°c 1007.9 hPa 83% 31.4mm
21/05:30pm SE 11-25 kts 22.7°c 1009.3 hPa 85% 28.2mm
21/05:25pm S 18-33 kts 22.3°c 1009.7 hPa 88% 27.2mm
21/05:20pm SSW 25-35 kts 22.0°c 1010.2 hPa 88% 23.8mm
21/05:02pm WSW 25-37 kts 22.1°c 1009.2 hPa 90% 8.8mm
21/05:00pm WSW 25-37 kts 22.3°c 1009.3 hPa 89% 7.4mm
21/04:59pm SW 24-37 kts 22.6°c 1009.1 hPa 88% 6.4mm
21/04:55pm WSW 20-35 kts 23.0°c 1008.5 hPa 83% 2.8mm
21/04:54pm WSW 19-31 kts 23.7°c 1008.6 hPa 82% 1.8mm
21/04:49pm WSW 14-24 kts 25.8°c 1007.9 hPa 74% 0.0mm
21/04:43pm NW 9-14 kts 27.4°c 1007.9 hPa 85% 0.0mm
21/04:30pm NNE 15-18 kts 27.1°c 1005.8 hPa 84% 0.0mm
21/04:00pm NNE 19-25 kts 28.6°c 1006.4 hPa 77% 0.0mm
21/03:30pm NNE 17-22 kts 29.9°c 1006.3 hPa 75% 0.0mm
21/03:00pm NNE 17-21 kts 29.3°c 1006.4 hPa 75% 0.0mm
21/02:30pm NNE 18-23 kts 30.0°c 1006.6 hPa 75% 0.0mm
21/02:00pm NNE 19-23 kts 29.9°c 1007.2 hPa 75% 0.0mm
21/01:30pm NNE 17-22 kts 30.2°c 1007.6 hPa 73% 0.0mm
21/01:00pm NNE 18-21 kts 30.2°c 1007.9 hPa 73% 0.0mm
21/12:30pm NNE 18-22 kts 29.9°c 1008.3 hPa 76% 0.0mm
21/12:00pm NNE 17-21 kts 29.9°c 1008.7 hPa 75% 0.0mm
21/11:30am NNE 17-21 kts 30.0°c 1009.0 hPa 77% 0.0mm
21/11:00am NNE 16-20 kts 30.1°c 1009.5 hPa 78% 0.0mm
21/10:30am NNE 18-22 kts 29.9°c 1009.6 hPa 76% 0.0mm
21/10:00am NNE 17-21 kts 29.0°c 1009.6 hPa 75% 0.0mm
21/09:30am NNE 13-17 kts 29.7°c 1010.0 hPa 75% 0.0mm
21/09:00am N 13-18 kts 30.8°c 1010.1 hPa 68% 1.2mm
21/08:30am NNE 13-16 kts 28.1°c 1010.2 hPa 80% 1.2mm
21/08:00am NE 11-13 kts 27.8°c 1010.3 hPa 82% 1.2mm
21/07:30am NNE 9-11 kts 27.3°c 1010.6 hPa 84% 1.2mm
21/07:03am NE 6-7 kts 26.9°c 1010.6 hPa 84% 1.2mm
21/07:00am NE 6-7 kts 27.1°c 1010.6 hPa 85% 1.2mm
21/06:51am NE 5-6 kts 26.7°c 1010.7 hPa 84% 1.2mm
21/06:30am CALM 0 kts 25.7°c 1010.5 hPa 88% 1.2mm
21/06:00am CALM 0 kts 25.2°c 1010.3 hPa 93% 1.2mm
21/05:30am CALM 0 kts 24.8°c 1009.7 hPa 92% 1.2mm
21/05:00am NW 7-9 kts 25.1°c 1009.1 hPa 91% 1.2mm
21/04:30am N 8-11 kts 25.1°c 1008.3 hPa 92% 1.2mm
21/04:00am NNW 8-11 kts 24.9°c 1008.2 hPa 94% 1.2mm
21/03:30am NNW 7-8 kts 24.6°c 1008.0 hPa 93% 1.2mm
21/03:00am N 6-7 kts 24.8°c 1007.9 hPa 92% 1.2mm
21/02:30am N 7-10 kts 25.2°c 1007.7 hPa 89% 1.2mm
21/02:00am N 9-11 kts 25.4°c 1007.8 hPa 90% 1.2mm
21/01:30am N 6-8 kts 25.3°c 1008.4 hPa 91% 1.2mm
21/01:00am N 6-7 kts 25.4°c 1008.5 hPa 92% 1.2mm
21/12:30am N 7-9 kts 25.7°c 1008.9 hPa 91% 1.2mm
21/12:00am N 9-15 kts 25.9°c 1009.1 hPa 92% 1.2mm
Time Wind Speed Temp Pressure Rel. Hum Rain
20/11:30pm N 9-13 kts 25.8°c 1009.2 hPa 93% 1.2mm
20/11:00pm N 9-12 kts 25.8°c 1009.3 hPa 94% 1.2mm
20/10:49pm NNE 8-10 kts 25.8°c 1009.3 hPa 94% 1.2mm
20/10:33pm NNE 6-8 kts 25.7°c 1009.2 hPa 94% 1.2mm
20/10:30pm NNE 5-7 kts 25.6°c 1009.2 hPa 94% 1.2mm
20/10:00pm CALM 0 kts 24.7°c 1009.2 hPa 93% 1.2mm
20/09:30pm NW 5 kts 24.5°c 1009.0 hPa 92% 1.2mm
20/09:00pm W 2-4 kts 24.7°c 1008.8 hPa 90% 1.2mm
20/08:30pm CALM 0-1 kts 24.6°c 1008.5 hPa 90% 1.2mm
20/08:07pm W 4-6 kts 24.5°c 1008.1 hPa 91% 1.2mm
20/08:00pm W 5-7 kts 24.8°c 1008.2 hPa 91% 1.2mm
20/07:41pm NW 4-5 kts 25.0°c 1007.8 hPa 91% 1.2mm
20/07:30pm NW 5-6 kts 25.1°c 1007.7 hPa 91% 1.2mm
20/07:00pm NE 8-10 kts 25.6°c 1007.2 hPa 88% 1.2mm
20/06:30pm ENE 12-15 kts 25.1°c 1006.4 hPa 88% 1.2mm
20/06:00pm SE 6-8 kts 25.4°c 1007.1 hPa 86% 0.8mm
20/05:30pm WSW 11-18 kts 25.7°c 1007.8 hPa 82% 0.2mm
20/05:24pm WSW 9-13 kts 25.9°c 1007.4 hPa 82% 0.2mm
20/05:00pm NW 9-13 kts 26.3°c 1005.3 hPa 84% 0.0mm
20/04:30pm N 17-24 kts 26.6°c 1005.2 hPa 87% 0.0mm
20/04:11pm NNE 19-25 kts 27.2°c 1004.9 hPa 82% 0.0mm
20/04:00pm NNE 19-25 kts 27.7°c 1005.2 hPa 80% 0.0mm
20/03:51pm NNE 18-24 kts 28.0°c 1004.9 hPa 80% 0.0mm
20/03:30pm NNE 19-23 kts 28.2°c 1005.0 hPa 78% 0.0mm
20/03:00pm NNE 17-21 kts 28.7°c 1004.9 hPa 76% 0.0mm
20/02:30pm NNE 19-23 kts 28.4°c 1005.2 hPa 78% 0.0mm
20/02:00pm NNE 19-25 kts 30.0°c 1005.5 hPa 74% 0.0mm
20/01:30pm NNE 19-23 kts 29.7°c 1006.0 hPa 76% 0.0mm
20/01:00pm NNE 19-24 kts 29.5°c 1006.4 hPa 74% 0.0mm
20/12:30pm NNE 17-22 kts 30.0°c 1006.9 hPa 74% 0.0mm
20/12:00pm NNE 17-22 kts 29.8°c 1007.2 hPa 75% 0.0mm
20/11:30am NNE 17-23 kts 29.4°c 1007.5 hPa 78% 0.0mm
20/11:00am NNE 18-22 kts 29.4°c 1007.7 hPa 76% 0.0mm
20/10:30am NNE 18-21 kts 28.6°c 1007.9 hPa 77% 0.0mm
20/10:00am NNE 15-20 kts 28.9°c 1008.3 hPa 76% 0.0mm
20/09:30am NNE 16-19 kts 28.6°c 1008.2 hPa 77% 0.0mm
20/09:00am NNE 14-18 kts 28.6°c 1008.2 hPa 77% 0.0mm
20/08:30am NNW 10-14 kts 28.8°c 1008.3 hPa 73% 0.0mm
20/08:00am N 11-15 kts 28.4°c 1008.4 hPa 75% 0.0mm
20/07:30am N 11-16 kts 27.2°c 1008.2 hPa 79% 0.0mm
20/07:00am N 8-11 kts 27.1°c 1008.1 hPa 81% 0.0mm
20/06:30am NNW 9-11 kts 25.9°c 1007.9 hPa 86% 0.0mm
20/06:00am N 9-12 kts 25.7°c 1007.4 hPa 86% 0.0mm
20/05:30am N 9-11 kts 24.8°c 1007.0 hPa 90% 0.0mm
20/05:00am N 10-14 kts 25.1°c 1006.7 hPa 88% 0.0mm
20/04:30am N 10-13 kts 24.9°c 1006.5 hPa 88% 0.0mm
20/04:00am NNW 7-9 kts 24.9°c 1006.4 hPa 88% 0.0mm
20/03:30am N 9-13 kts 25.1°c 1006.1 hPa 86% 0.0mm
20/03:00am N 10-15 kts 25.2°c 1006.2 hPa 87% 0.0mm
20/02:30am N 8-11 kts 25.0°c 1006.1 hPa 88% 0.0mm
20/02:00am NNW 7-10 kts 25.0°c 1006.1 hPa 89% 0.0mm
20/01:30am N 7-10 kts 25.2°c 1006.1 hPa 88% 0.0mm
20/01:05am N 8-11 kts 25.8°c 1006.0 hPa 88% 0.0mm
20/01:00am N 9-11 kts 25.8°c 1006.0 hPa 88% 0.0mm
20/12:30am N 11-15 kts 26.1°c 1006.3 hPa 87% 0.0mm
20/12:00am N 13-19 kts 26.1°c 1006.5 hPa 88% 0.0mm
Time Wind Speed Temp Pressure Rel. Hum Rain
19/11:30pm N 10-13 kts 26.0°c 1006.6 hPa 89% 0.0mm
19/11:00pm N 9-13 kts 26.1°c 1006.6 hPa 90% 0.0mm
19/10:30pm N 10-15 kts 26.3°c 1006.7 hPa 90% 0.0mm
19/10:00pm N 11-16 kts 26.4°c 1006.6 hPa 91% 0.0mm
19/09:30pm N 12-16 kts 26.4°c 1006.6 hPa 90% 0.0mm
19/09:00pm NNE 11-15 kts 26.2°c 1006.5 hPa 90% 0.0mm
19/08:30pm NNE 10-13 kts 26.2°c 1006.2 hPa 89% 0.0mm
19/08:11pm N 9-13 kts 26.3°c 1006.0 hPa 88% 0.0mm
19/08:00pm NNE 10-13 kts 26.2°c 1005.9 hPa 87% 0.0mm
19/07:53pm NNE 11-15 kts 26.3°c 1005.8 hPa 87% 0.0mm
19/07:30pm NNE 11-14 kts 26.5°c 1005.5 hPa 87% 0.0mm
19/07:19pm NNE 9-14 kts 26.5°c 1005.4 hPa 88% 0.0mm
19/07:00pm NNE 8-10 kts 26.5°c 1005.3 hPa 88% 0.0mm
19/06:30pm NNE 7-9 kts 26.6°c 1004.8 hPa 86% 0.0mm
19/06:00pm NNE 11-15 kts 26.7°c 1004.2 hPa 83% 0.0mm
19/05:30pm NNE 13-17 kts 27.8°c 1003.7 hPa 74% 0.0mm
19/05:00pm NNE 13-16 kts 27.1°c 1003.7 hPa 78% 0.0mm
19/04:30pm NNE 13-16 kts 27.2°c 1003.5 hPa 78% 0.0mm
19/04:00pm NNE 13-17 kts 27.1°c 1003.4 hPa 79% 0.0mm
19/03:30pm NNE 13-15 kts 26.6°c 1003.6 hPa 78% 0.0mm
19/03:00pm NNE 13-17 kts 27.6°c 1003.8 hPa 74% 0.0mm
19/02:30pm NE 14-18 kts 28.9°c 1003.5 hPa 71% 0.0mm
19/02:00pm NNE 13-17 kts 28.3°c 1003.8 hPa 65% 0.0mm
19/01:30pm NNE 16-21 kts 27.6°c 1004.0 hPa 72% 0.0mm
19/01:00pm NE 14-17 kts 28.2°c 1004.1 hPa 65% 0.0mm
19/12:30pm NE 12-15 kts 28.8°c 1004.5 hPa 70% 0.0mm
19/12:00pm NE 11-14 kts 28.4°c 1004.9 hPa 71% 0.0mm
19/11:30am NE 12-15 kts 28.0°c 1005.5 hPa 74% 0.0mm
19/11:00am NE 14-16 kts 27.6°c 1005.8 hPa 72% 0.0mm
19/10:30am NNE 16-18 kts 28.1°c 1006.0 hPa 72% 0.0mm
19/10:00am NNE 13-20 kts 27.1°c 1006.0 hPa 70% 0.0mm
19/09:30am N 10-13 kts 28.8°c 1005.9 hPa 68% 0.0mm
19/09:00am NW 9-12 kts 27.2°c 1005.7 hPa 75% 36.8mm
19/08:30am NNW 6-9 kts 26.7°c 1005.8 hPa 83% 36.8mm
19/08:00am NW 6-8 kts 25.7°c 1005.5 hPa 88% 36.8mm
19/07:30am NW 4-7 kts 24.1°c 1005.3 hPa 91% 36.8mm
19/07:00am WNW 6-7 kts 23.3°c 1005.1 hPa 97% 36.8mm
19/06:30am WNW 4-5 kts 22.1°c 1005.4 hPa 70% 36.8mm
19/06:04am WNW 6 kts 21.8°c 1005.0 hPa 100% 36.8mm
19/06:00am WNW 6 kts 21.8°c 1005.1 hPa 100% 36.8mm
19/05:30am NW 1-5 kts 21.7°c 1004.9 hPa 98% 36.8mm
19/05:05am NNW 4-5 kts 21.5°c 1004.7 hPa 98% 36.8mm
19/05:00am NW 4-5 kts 21.4°c 1004.6 hPa 98% 36.8mm
19/04:30am NNW 4-6 kts 21.4°c 1004.2 hPa 98% 36.8mm
19/04:00am NNW 6-7 kts 21.2°c 1003.6 hPa 98% 36.8mm
19/03:30am WSW 5-6 kts 21.0°c 1003.0 hPa 97% 36.8mm
19/03:00am SSW 1-4 kts 21.2°c 1003.5 hPa 97% 36.8mm
19/02:30am WSW 4 kts 21.6°c 1003.6 hPa 96% 36.8mm
19/02:00am SW 5-6 kts 21.7°c 1003.4 hPa 95% 36.6mm
19/01:30am SE 5-9 kts 22.0°c 1003.3 hPa 96% 36.6mm
19/01:18am ENE 5-8 kts 21.8°c 1003.3 hPa 96% 36.6mm
19/01:00am NW 7-10 kts 21.7°c 1004.3 hPa 95% 36.4mm
19/12:56am NW 6-8 kts 21.6°c 1004.2 hPa 94% 36.2mm
19/12:30am SW 6-7 kts 21.4°c 1003.8 hPa 94% 35.8mm
19/12:00am NW 7-8 kts 21.3°c 1004.5 hPa 93% 35.4mm